,,Stat5,,Stat1,,Stat2,,Stat3,,Stat4,,Wind1,,Wind1,
time,status,PA1M_AVG,status,PR1M_SUM,status,RH1M_AVG,status,SR1M_AVG,status,TA1M_AVG,status,W1dAve1m,status,W1sAve1m,
2002-02-22, 00:00:01,VALID,921.811,VALID,0,VALID,93.3574,VALID,-0.0339617,VALID,19.2771,VALID,72,VALID,0.811415,
2002-02-22, 00:01:00,VALID,921.821,VALID,0,VALID,93.3866,VALID,-0.0509425,VALID,19.2574,VALID,68,VALID,0.884502,
2002-02-22, 00:02:00,VALID,921.831,VALID,0,VALID,93.3549,VALID,-0.101885,VALID,19.2376,VALID,69,VALID,0.824113,
2002-02-22, 00:03:00,VALID,921.832,VALID,0,VALID,93.2798,VALID,-0.0509425,VALID,19.2214,VALID,79,VALID,0.891026,
2002-02-22, 00:04:00,VALID,921.846,VALID,0,VALID,93.1349,VALID,-0.0679233,VALID,19.1995,VALID,70,VALID,0.826225,
2002-02-22, 00:05:00,VALID,921.849,VALID,0,VALID,93.1158,VALID,-0.0509425,VALID,19.1765,VALID,72,VALID,0.695117,
2002-02-22, 00:06:00,VALID,921.849,VALID,0,VALID,92.9632,VALID,-0.0339617,VALID,19.17,VALID,63,VALID,0.735518,
2002-02-22, 00:07:00,VALID,921.841,VALID,0,VALID,92.5474,VALID,-0.0849042,VALID,19.1543,VALID,73,VALID,0.798109,
2002-02-22, 00:08:00,VALID,921.851,VALID,0,VALID,92.1634,VALID,-0.0679233,VALID,19.1285,VALID,53,VALID,0.698396,
2002-02-22, 00:09:00,VALID,921.859,VALID,0,VALID,92.1812,VALID,-0.0509425,VALID,19.1317,VALID,48,VALID,0.647266,
2002-02-22, 00:10:00,VALID,921.855,VALID,0,VALID,92.0756,VALID,-0.0339617,VALID,19.0959,VALID,44,VALID,0.784539,
2002-02-22, 00:11:00,VALID,921.852,VALID,0,VALID,92.0756,VALID,-0.0849042,VALID,19.0574,VALID,46,VALID,0.801809,
2002-02-22, 00:12:00,VALID,921.845,VALID,0,VALID,91.951,VALID,-0.0509425,VALID,19.012,VALID,47,VALID,0.764147,
2002-02-22, 00:13:00,VALID,921.848,VALID,0,VALID,91.9218,VALID,0,VALID,18.9794,VALID,47,VALID,0.750434,
2002-02-22, 00:14:00,VALID,921.838,VALID,0,VALID,91.8289,VALID,-0.0509425,VALID,18.976,VALID,54,VALID,0.786241,
2002-02-22, 00:15:00,VALID,921.828,VALID,0,VALID,91.5543,VALID,-0.0509425,VALID,18.979,VALID,58,VALID,0.879192,
2002-02-22, 00:16:00,VALID,921.816,VALID,0,VALID,91.0126,VALID,-0.0509425,VALID,18.9991,VALID,61,VALID,0.875211,
2002-02-22, 00:17:00,VALID,921.803,VALID,0,VALID,90.448,VALID,-0.0679233,VALID,19.0343,VALID,65,VALID,0.824424,
2002-02-22, 00:18:00,VALID,921.807,VALID,0,VALID,90.022,VALID,-0.0509425,VALID,19.086,VALID,79,VALID,0.862253,
2002-02-22, 00:19:00,VALID,921.797,VALID,0,VALID,90.0716,VALID,-0.0509425,VALID,19.1635,VALID,96,VALID,0.904344,
2002-02-22, 00:20:00,VALID,921.781,VALID,0,VALID,89.5858,VALID,-0.0169808,VALID,19.241,VALID,110,VALID,0.809827,
2002-02-22, 00:21:00,VALID,921.771,VALID,0,VALID,89.5896,VALID,0,VALID,19.29,VALID,101,VALID,0.910362,
2002-02-22, 00:22:00,VALID,921.759,VALID,0,VALID,89.2501,VALID,0,VALID,19.2922,VALID,91,VALID,0.953776,
2002-02-22, 00:23:00,VALID,921.756,VALID,0,VALID,89.4002,VALID,-0.0169808,VALID,19.3094,VALID,89,VALID,1.16111,
2002-02-22, 00:24:00,VALID,921.75,VALID,0,VALID,89.1369,VALID,-0.0339617,VALID,19.2885,VALID,87,VALID,1.15804,
2002-02-22, 00:25:00,VALID,921.747,VALID,0,VALID,89.1547,VALID,-0.0169808,VALID,19.2987,VALID,90,VALID,1.20374,
2002-02-22, 00:26:00,VALID,921.743,VALID,0,VALID,89.3289,VALID,0,VALID,19.2821,VALID,87,VALID,1.07031,
2002-02-22, 00:27:00,VALID,921.752,VALID,0,VALID,89.4993,VALID,0,VALID,19.2694,VALID,88,VALID,1.25247,
2002-02-22, 00:28:00,VALID,921.767,VALID,0,VALID,89.6227,VALID,-0.0169808,VALID,19.2436,VALID,88,VALID,1.41258,
2002-02-22, 00:29:00,VALID,921.776,VALID,0,VALID,89.6786,VALID,-0.0169808,VALID,19.25,VALID,90,VALID,1.35312,
2002-02-22, 00:30:00,VALID,921.776,VALID,0,VALID,89.8109,VALID,-0.0169808,VALID,19.2597,VALID,101,VALID,1.13199,
2002-02-22, 00:31:00,VALID,921.787,VALID,0,VALID,89.905,VALID,0,VALID,19.2535,VALID,95,VALID,1.15929,
2002-02-22, 00:32:00,VALID,921.794,VALID,0,VALID,90.0016,VALID,0.0169808,VALID,19.2406,VALID,92,VALID,1.36423,
2002-02-22, 00:33:00,VALID,921.785,VALID,0,VALID,90.1313,VALID,-0.0339617,VALID,19.2247,VALID,93,VALID,1.49937,
2002-02-22, 00:34:00,VALID,921.782,VALID,0,VALID,90.1975,VALID,0,VALID,19.2115,VALID,95,VALID,1.35662,
2002-02-22, 00:35:00,VALID,921.778,VALID,0,VALID,90.158,VALID,-0.0169808,VALID,19.2212,VALID,112,VALID,0.975586,
2002-02-22, 00:36:00,VALID,921.782,VALID,0,VALID,90.0906,VALID,0,VALID,19.2373,VALID,120,VALID,1.0599,
2002-02-22, 00:37:00,VALID,921.76,VALID,0,VALID,90.2343,VALID,0,VALID,19.2567,VALID,122,VALID,1.37685,
2002-02-22, 00:38:00,VALID,921.754,VALID,0,VALID,90.4416,VALID,0,VALID,19.257,VALID,126,VALID,1.18421,
2002-02-22, 00:39:00,VALID,921.744,VALID,0,VALID,90.6527,VALID,-0.0679233,VALID,19.2281,VALID,133,VALID,1.02559,
2002-02-22, 00:40:00,VALID,921.734,VALID,0,VALID,90.7875,VALID,-0.118866,VALID,19.2097,VALID,135,VALID,1.10814,
2002-02-22, 00:41:00,VALID,921.717,VALID,0,VALID,90.9998,VALID,-0.118866,VALID,19.207,VALID,135,VALID,0.974507,
2002-02-22, 00:42:00,VALID,921.698,VALID,0,VALID,91.2236,VALID,-0.135847,VALID,19.2,VALID,121,VALID,0.929054,
2002-02-22, 00:43:00,VALID,921.682,VALID,0,VALID,91.3292,VALID,-0.135847,VALID,19.1933,VALID,121,VALID,0.756293,
2002-02-22, 00:44:00,VALID,921.668,VALID,0,VALID,91.3444,VALID,-0.101885,VALID,19.2003,VALID,117,VALID,0.880469,
2002-02-22, 00:45:00,VALID,921.653,VALID,0,VALID,91.4093,VALID,-0.118866,VALID,19.2035,VALID,119,VALID,1.01543,
2002-02-22, 00:46:00,VALID,921.638,VALID,0,VALID,91.2974,VALID,-0.118866,VALID,19.1931,VALID,117,VALID,1.13239,
2002-02-22, 00:47:00,VALID,921.636,VALID,0,VALID,91.2211,VALID,-0.101885,VALID,19.2132,VALID,123,VALID,0.850946,
2002-02-22, 00:48:00,VALID,921.627,VALID,0,VALID,91.3114,VALID,-0.118866,VALID,19.2293,VALID,116,VALID,0.79852,
2002-02-22, 00:49:00,VALID,921.621,VALID,0,VALID,91.3292,VALID,-0.169808,VALID,19.2296,VALID,122,VALID,0.896723,
2002-02-22, 00:50:00,VALID,921.617,VALID,0,VALID,91.3343,VALID,-0.135847,VALID,19.2358,VALID,120,VALID,0.948396,
2002-02-22, 00:51:00,VALID,921.618,VALID,0,VALID,91.0914,VALID,-0.118866,VALID,19.2393,VALID,119,VALID,0.946135,
2002-02-22, 00:52:00,VALID,921.616,VALID,0,VALID,90.8739,VALID,-0.101885,VALID,19.2515,VALID,117,VALID,0.926866,
2002-02-22, 00:53:00,VALID,921.608,VALID,0,VALID,90.5255,VALID,-0.135847,VALID,19.2681,VALID,121,VALID,0.963049,
2002-02-22, 00:54:00,VALID,921.605,VALID,0,VALID,90.2394,VALID,-0.0849042,VALID,19.2927,VALID,112,VALID,0.820982,
2002-02-22, 00:55:00,VALID,921.596,VALID,0,VALID,89.8325,VALID,0,VALID,19.3144,VALID,98,VALID,0.889186,
2002-02-22, 00:56:00,VALID,921.588,VALID,0,VALID,89.54,VALID,0,VALID,19.3561,VALID,98,VALID,1.0266,
2002-02-22, 00:57:00,VALID,921.57,VALID,0,VALID,89.6189,VALID,0.0169808,VALID,19.3919,VALID,103,VALID,0.581209,
2002-02-22, 00:58:00,VALID,921.561,VALID,0,VALID,89.5693,VALID,-0.0339617,VALID,19.4085,VALID,112,VALID,0.587627,
2002-02-22, 00:59:00,VALID,921.551,VALID,0,VALID,89.4167,VALID,0,VALID,19.4214,VALID,130,VALID,0.770312,
2002-02-22, 01:00:00,VALID,921.535,VALID,0,VALID,89.226,VALID,-0.0169808,VALID,19.4406,VALID,124,VALID,0.938117,
2002-02-22, 01:01:00,VALID,921.52,VALID,0,VALID,88.9945,VALID,-0.0169808,VALID,19.46,VALID,132,VALID,0.783854,
2002-02-22, 01:02:00,VALID,921.525,VALID,0,VALID,89.0797,VALID,0,VALID,19.4957,VALID,142,VALID,0.75,
2002-02-22, 01:03:00,VALID,921.504,VALID,0,VALID,88.8775,VALID,-0.0169808,VALID,19.5116,VALID,149,VALID,0.771115,
2002-02-22, 01:04:00,VALID,921.512,VALID,0,VALID,88.6321,VALID,-0.0169808,VALID,19.5539,VALID,149,VALID,0.471967,
2002-02-22, 01:05:00,VALID,921.494,VALID,0,VALID,87.8959,VALID,0,VALID,19.5728,VALID,146,VALID,0.782422,
2002-02-22, 01:06:00,VALID,921.494,VALID,0,VALID,87.8488,VALID,0,VALID,19.6311,VALID,128,VALID,0.375601,
2002-02-22, 01:07:00,VALID,921.484,VALID,0,VALID,87.6415,VALID,0,VALID,19.6667,VALID,111,VALID,0.402755,
2002-02-22, 01:08:00,VALID,921.469,VALID,0,VALID,87.7178,VALID,-0.0509425,VALID,19.6898,VALID,96,VALID,0.440173,
2002-02-22, 01:09:00,VALID,921.45,VALID,0,VALID,87.8221,VALID,0,VALID,19.6962,VALID,99,VALID,0.308398,
2002-02-22, 01:10:00,VALID,921.438,VALID,0,VALID,87.7534,VALID,-0.0169808,VALID,19.6858,VALID,99,VALID,0.373561,
2002-02-22, 01:11:00,VALID,921.419,VALID,0,VALID,87.7979,VALID,0,VALID,19.6798,VALID,100,VALID,0.0474918,
2002-02-22, 01:12:00,VALID,921.403,VALID,0,VALID,88.2087,VALID,-0.0169808,VALID,19.6731,VALID,102,VALID,0,
2002-02-22, 01:13:00,VALID,921.382,VALID,0,VALID,88.3066,VALID,-0.0169808,VALID,19.6731,VALID,103,VALID,0,
2002-02-22, 01:14:00,VALID,921.371,VALID,0,VALID,88.7402,VALID,0.0169808,VALID,19.6401,VALID,103,VALID,0,
2002-02-22, 01:15:00,VALID,921.348,VALID,0,VALID,89.0441,VALID,-0.0339617,VALID,19.6379,VALID,103,VALID,0,
2002-02-22, 01:16:00,VALID,921.334,VALID,0,VALID,89.4218,VALID,-0.0339617,VALID,19.6118,VALID,102,VALID,0,
2002-02-22, 01:17:00,VALID,921.323,VALID,0,VALID,89.9953,VALID,-0.0169808,VALID,19.5569,VALID,102,VALID,0,
2002-02-22, 01:18:00,VALID,921.313,VALID,0,VALID,90.2203,VALID,0,VALID,19.4918,VALID,102,VALID,0,
2002-02-22, 01:19:00,VALID,921.298,VALID,0,VALID,90.247,VALID,0.0169808,VALID,19.4272,VALID,102,VALID,0,
2002-02-22, 01:20:00,VALID,921.285,VALID,0,VALID,90.3577,VALID,-0.0169808,VALID,19.3884,VALID,102,VALID,0,
2002-02-22, 01:21:00,VALID,921.277,VALID,0,VALID,90.4187,VALID,0,VALID,19.366,VALID,102,VALID,0,
2002-02-22, 01:22:00,VALID,921.268,VALID,0,VALID,90.406,VALID,0,VALID,19.3593,VALID,102,VALID,0,
2002-02-22, 01:23:00,VALID,921.267,VALID,0,VALID,90.6069,VALID,0,VALID,19.3693,VALID,102,VALID,0,
2002-02-22, 01:24:00,VALID,921.239,VALID,0,VALID,90.4022,VALID,-0.0169808,VALID,19.3564,VALID,103,VALID,0,
2002-02-22, 01:25:00,VALID,921.228,VALID,0,VALID,90.7214,VALID,-0.0169808,VALID,19.3596,VALID,103,VALID,0.0738076,
2002-02-22, 01:26:00,VALID,921.219,VALID,0,VALID,90.6641,VALID,-0.0169808,VALID,19.3598,VALID,122,VALID,0.5019,
2002-02-22, 01:27:00,VALID,921.2,VALID,0,VALID,90.2458,VALID,-0.0169808,VALID,19.3375,VALID,119,VALID,0.633224,
2002-02-22, 01:28:00,VALID,921.185,VALID,0,VALID,89.8872,VALID,-0.0169808,VALID,19.3308,VALID,124,VALID,0.770059,
2002-02-22, 01:29:00,VALID,921.168,VALID,0,VALID,90.2521,VALID,0,VALID,19.3437,VALID,127,VALID,0.654688,
2002-02-22, 01:30:00,VALID,921.149,VALID,0,VALID,90.0601,VALID,-0.0169808,VALID,19.3372,VALID,135,VALID,0.897204,
2002-02-22, 01:31:00,VALID,921.141,VALID,0,VALID,90.1479,VALID,-0.0169808,VALID,19.337,VALID,137,VALID,0.72526,
2002-02-22, 01:32:00,VALID,921.114,VALID,0,VALID,90.0817,VALID,0,VALID,19.3178,VALID,140,VALID,1.1269,
2002-02-22, 01:33:00,VALID,921.099,VALID,0,VALID,90.1784,VALID,-0.0169808,VALID,19.3211,VALID,144,VALID,1.05532,
2002-02-22, 01:34:00,VALID,921.088,VALID,0,VALID,90.2687,VALID,0,VALID,19.3213,VALID,129,VALID,0.820313,
2002-02-22, 01:35:00,VALID,921.071,VALID,0,VALID,90.3055,VALID,0,VALID,19.3012,VALID,123,VALID,0.605078,
2002-02-22, 01:36:00,VALID,921.061,VALID,0,VALID,89.9978,VALID,0,VALID,19.2885,VALID,118,VALID,0.96895,
2002-02-22, 01:37:00,VALID,921.054,VALID,0,VALID,90.0906,VALID,0,VALID,19.2756,VALID,131,VALID,0.703125,
2002-02-22, 01:38:00,VALID,921.039,VALID,0,VALID,90.2712,VALID,0.0169808,VALID,19.2786,VALID,138,VALID,0.850329,
2002-02-22, 01:39:00,VALID,921.031,VALID,0,VALID,90.2292,VALID,0.0169808,VALID,19.2694,VALID,139,VALID,1.0668,
2002-02-22, 01:40:00,VALID,921.023,VALID,0,VALID,90.2725,VALID,0,VALID,19.2498,VALID,137,VALID,1.08923,
2002-02-22, 01:41:00,VALID,921.003,VALID,0,VALID,90.3144,VALID,0,VALID,19.2304,VALID,142,VALID,1.09211,
2002-02-22, 01:42:00,VALID,920.998,VALID,0,VALID,90.4035,VALID,-0.0169808,VALID,19.2209,VALID,147,VALID,1.11064,
2002-02-22, 01:43:00,VALID,920.999,VALID,0,VALID,90.1351,VALID,0,VALID,19.1983,VALID,148,VALID,1.18967,
2002-02-22, 01:44:00,VALID,921.003,VALID,0,VALID,90.1148,VALID,-0.0169808,VALID,19.2018,VALID,144,VALID,1.29015,
2002-02-22, 01:45:00,VALID,920.992,VALID,0,VALID,89.9508,VALID,-0.0339617,VALID,19.215,VALID,151,VALID,1.12633,
2002-02-22, 01:46:00,VALID,921.006,VALID,0,VALID,89.8681,VALID,-0.0169808,VALID,19.2276,VALID,144,VALID,1.0891,
2002-02-22, 01:47:00,VALID,920.986,VALID,0,VALID,89.657,VALID,0,VALID,19.2306,VALID,142,VALID,1.18709,
2002-02-22, 01:48:00,VALID,920.993,VALID,0,VALID,89.8948,VALID,0,VALID,19.2341,VALID,144,VALID,0.674959,
2002-02-22, 01:49:00,VALID,920.993,VALID,0,VALID,89.8694,VALID,-0.0169808,VALID,19.2274,VALID,136,VALID,1.06307,
2002-02-22, 01:50:00,VALID,920.982,VALID,0,VALID,90.0461,VALID,0,VALID,19.2209,VALID,131,VALID,0.785979,
2002-02-22, 01:51:00,VALID,920.983,VALID,0,VALID,90.1453,VALID,0,VALID,19.2113,VALID,123,VALID,0.775699,
2002-02-22, 01:52:00,VALID,920.988,VALID,0,VALID,89.8935,VALID,0,VALID,19.1983,VALID,133,VALID,0.858724,
2002-02-22, 01:53:00,VALID,920.987,VALID,0,VALID,89.9622,VALID,-0.0169808,VALID,19.1916,VALID,133,VALID,0.954181,
2002-02-22, 01:54:00,VALID,921,VALID,0,VALID,89.9024,VALID,-0.0339617,VALID,19.1884,VALID,140,VALID,1.18638,
2002-02-22, 01:55:00,VALID,920.999,VALID,0,VALID,89.9495,VALID,0,VALID,19.1921,VALID,140,VALID,1.30633,
2002-02-22, 01:56:00,VALID,920.999,VALID,0,VALID,90.069,VALID,-0.0169808,VALID,19.169,VALID,139,VALID,1.50781,
2002-02-22, 01:57:00,VALID,920.993,VALID,0,VALID,90.2013,VALID,-0.0169808,VALID,19.1596,VALID,129,VALID,0.957237,
2002-02-22, 01:58:00,VALID,920.988,VALID,0,VALID,90.4403,VALID,-0.0169808,VALID,19.1432,VALID,131,VALID,0.877534,
2002-02-22, 01:59:00,VALID,920.983,VALID,0,VALID,90.6552,VALID,-0.0169808,VALID,19.1206,VALID,131,VALID,0.722266,
2002-02-22, 02:00:00,VALID,920.974,VALID,0,VALID,90.9388,VALID,0.0169808,VALID,19.1077,VALID,136,VALID,0.73273,
2002-02-22, 02:01:00,VALID,920.971,VALID,0,VALID,91.0634,VALID,0,VALID,19.095,VALID,117,VALID,0.617622,
2002-02-22, 02:02:00,VALID,920.95,VALID,0,VALID,90.832,VALID,-0.0679233,VALID,19.0726,VALID,130,VALID,0.843117,
2002-02-22, 02:03:00,VALID,920.943,VALID,0,VALID,90.8307,VALID,0,VALID,19.0724,VALID,131,VALID,0.727407,
2002-02-22, 02:04:00,VALID,920.949,VALID,0,VALID,90.757,VALID,0,VALID,19.0724,VALID,123,VALID,0.566406,
2002-02-22, 02:05:00,VALID,920.933,VALID,0,VALID,90.9401,VALID,0,VALID,19.0915,VALID,123,VALID,0.712305,
2002-02-22, 02:06:00,VALID,920.924,VALID,0,VALID,90.6654,VALID,0,VALID,19.0851,VALID,122,VALID,0.889223,
2002-02-22, 02:07:00,VALID,920.932,VALID,0,VALID,90.6743,VALID,-0.0339617,VALID,19.0952,VALID,124,VALID,1.10095,
2002-02-22, 02:08:00,VALID,920.925,VALID,0,VALID,90.5739,VALID,-0.0339617,VALID,19.098,VALID,133,VALID,1.02035,
2002-02-22, 02:09:00,VALID,920.936,VALID,0,VALID,90.4429,VALID,0,VALID,19.1273,VALID,129,VALID,0.959961,
2002-02-22, 02:10:00,VALID,920.938,VALID,0,VALID,90.3857,VALID,-0.0339617,VALID,19.134,VALID,125,VALID,0.75185,
2002-02-22, 02:11:00,VALID,920.936,VALID,0,VALID,90.3322,VALID,0,VALID,19.1596,VALID,126,VALID,0.629934,
2002-02-22, 02:12:00,VALID,920.931,VALID,0,VALID,90.3717,VALID,0,VALID,19.166,VALID,126,VALID,0.758657,
2002-02-22, 02:13:00,VALID,920.928,VALID,0,VALID,90.1924,VALID,0,VALID,19.1693,VALID,131,VALID,0.879774,
2002-02-22, 02:14:00,VALID,920.925,VALID,0,VALID,90.0474,VALID,-0.0169808,VALID,19.1824,VALID,130,VALID,0.777995,
2002-02-22, 02:15:00,VALID,920.921,VALID,0,VALID,90.069,VALID,0,VALID,19.1949,VALID,124,VALID,0.805069,
2002-02-22, 02:16:00,VALID,920.917,VALID,0,VALID,90.0499,VALID,-0.0169808,VALID,19.1983,VALID,130,VALID,1.02365,
2002-02-22, 02:17:00,VALID,920.911,VALID,0,VALID,90.1301,VALID,-0.0169808,VALID,19.2113,VALID,126,VALID,0.774054,
2002-02-22, 02:18:00,VALID,920.906,VALID,0,VALID,90.1097,VALID,0,VALID,19.2249,VALID,128,VALID,0.782484,
2002-02-22, 02:19:00,VALID,920.914,VALID,0,VALID,89.9571,VALID,0,VALID,19.2217,VALID,116,VALID,1.3729,
2002-02-22, 02:20:00,VALID,920.91,VALID,0,VALID,90.083,VALID,-0.0169808,VALID,19.2117,VALID,121,VALID,1.14926,
2002-02-22, 02:21:00,VALID,920.911,VALID,0,VALID,90.1758,VALID,-0.0339617,VALID,19.205,VALID,130,VALID,1.13076,
2002-02-22, 02:22:00,VALID,920.907,VALID,0,VALID,90.041,VALID,-0.0509425,VALID,19.2182,VALID,131,VALID,1.13759,
2002-02-22, 02:23:00,VALID,920.909,VALID,0,VALID,89.9317,VALID,-0.0509425,VALID,19.2117,VALID,128,VALID,0.770904,
2002-02-22, 02:24:00,VALID,920.904,VALID,0,VALID,89.8325,VALID,-0.0169808,VALID,19.2381,VALID,135,VALID,1.16027,
2002-02-22, 02:25:00,VALID,920.903,VALID,0,VALID,89.7778,VALID,-0.0339617,VALID,19.2381,VALID,131,VALID,1.09519,
2002-02-22, 02:26:00,VALID,920.9,VALID,0,VALID,89.8236,VALID,0,VALID,19.2475,VALID,143,VALID,1.06588,
2002-02-22, 02:27:00,VALID,920.903,VALID,0,VALID,89.8961,VALID,0,VALID,19.2436,VALID,143,VALID,1.01521,
2002-02-22, 02:28:00,VALID,920.902,VALID,0,VALID,89.9431,VALID,-0.0339617,VALID,19.2577,VALID,139,VALID,1.30258,
2002-02-22, 02:29:00,VALID,920.907,VALID,0,VALID,90.0728,VALID,-0.0679233,VALID,19.2475,VALID,141,VALID,1.26875,
2002-02-22, 02:30:00,VALID,920.895,VALID,0,VALID,90.1377,VALID,-0.0339617,VALID,19.2281,VALID,137,VALID,1.26336,
2002-02-22, 02:31:00,VALID,920.896,VALID,0,VALID,90.3297,VALID,-0.0339617,VALID,19.2184,VALID,141,VALID,1.24436,
2002-02-22, 02:32:00,VALID,920.89,VALID,0,VALID,90.3577,VALID,-0.0169808,VALID,19.2155,VALID,134,VALID,1.3788,
2002-02-22, 02:33:00,VALID,920.894,VALID,0,VALID,90.42,VALID,-0.0339617,VALID,19.2025,VALID,133,VALID,1.27597,
2002-02-22, 02:34:00,VALID,920.893,VALID,0,VALID,90.5726,VALID,-0.0169808,VALID,19.1891,VALID,138,VALID,0.835938,
2002-02-22, 02:35:00,VALID,920.893,VALID,0,VALID,90.6387,VALID,-0.0339617,VALID,19.1794,VALID,115,VALID,1.08496,
2002-02-22, 02:36:00,VALID,920.883,VALID,0,VALID,90.6336,VALID,-0.0339617,VALID,19.1665,VALID,103,VALID,1.32312,
2002-02-22, 02:37:00,VALID,920.887,VALID,0,VALID,90.7226,VALID,0,VALID,19.1566,VALID,102,VALID,1.23458,
2002-02-22, 02:38:00,VALID,920.476,VALID,0,VALID,90.832,VALID,-0.0339617,VALID,19.1439,VALID,109,VALID,1.3493,
2002-02-22, 02:39:00,VALID,920.887,VALID,0,VALID,91.0202,VALID,0,VALID,19.131,VALID,107,VALID,0.997656,
2002-02-22, 02:40:00,VALID,920.901,VALID,0,VALID,91.2529,VALID,-0.0169808,VALID,19.125,VALID,101,VALID,0.772204,
2002-02-22, 02:41:00,VALID,920.898,VALID,0,VALID,91.3228,VALID,-0.0169808,VALID,19.0925,VALID,105,VALID,1.17516,
2002-02-22, 02:42:00,VALID,920.881,VALID,0,VALID,91.3355,VALID,-0.0509425,VALID,19.0632,VALID,104,VALID,1.09882,
2002-02-22, 02:43:00,VALID,920.899,VALID,0,VALID,91.3711,VALID,-0.0339617,VALID,19.0761,VALID,98,VALID,1.07313,
2002-02-22, 02:44:00,VALID,920.905,VALID,0,VALID,91.3165,VALID,0,VALID,19.0796,VALID,100,VALID,1.12587,
2002-02-22, 02:45:00,VALID,920.923,VALID,0,VALID,91.3928,VALID,-0.0169808,VALID,19.0761,VALID,63,VALID,0.543255,
2002-02-22, 02:46:00,VALID,920.926,VALID,0,VALID,91.4945,VALID,-0.0339617,VALID,19.1024,VALID,78,VALID,0.673353,
2002-02-22, 02:47:00,VALID,920.925,VALID,0,VALID,91.4525,VALID,-0.0169808,VALID,19.1054,VALID,86,VALID,0.555715,
2002-02-22, 02:48:00,VALID,920.932,VALID,0,VALID,91.5593,VALID,-0.0339617,VALID,19.0959,VALID,88,VALID,0.490132,
2002-02-22, 02:49:00,VALID,920.93,VALID,0,VALID,91.4551,VALID,-0.0509425,VALID,19.0826,VALID,84,VALID,0.609947,
2002-02-22, 02:50:00,VALID,920.938,VALID,0,VALID,91.6064,VALID,-0.0169808,VALID,19.0959,VALID,56,VALID,0.270559,
2002-02-22, 02:51:00,VALID,920.953,VALID,0,VALID,91.5555,VALID,-0.0169808,VALID,19.0957,VALID,48,VALID,0.343956,
2002-02-22, 02:52:00,VALID,920.947,VALID,0,VALID,91.5708,VALID,-0.0169808,VALID,19.0957,VALID,54,VALID,0.367188,
2002-02-22, 02:53:00,VALID,920.945,VALID,0,VALID,91.4818,VALID,-0.0339617,VALID,19.0895,VALID,105,VALID,0.383024,
2002-02-22, 02:54:00,VALID,920.956,VALID,0,VALID,91.291,VALID,-0.0339617,VALID,19.0826,VALID,64,VALID,0.676116,
2002-02-22, 02:55:00,VALID,920.941,VALID,0,VALID,91.4563,VALID,-0.0339617,VALID,19.0828,VALID,56,VALID,0.535773,
2002-02-22, 02:56:00,VALID,920.936,VALID,0,VALID,91.6267,VALID,-0.0339617,VALID,19.0763,VALID,42,VALID,0.701014,
2002-02-22, 02:57:00,VALID,920.933,VALID,0,VALID,91.6725,VALID,0,VALID,19.0562,VALID,64,VALID,0.617393,
2002-02-22, 02:58:00,VALID,920.921,VALID,0,VALID,91.8404,VALID,-0.0169808,VALID,19.047,VALID,58,VALID,0.874578,
2002-02-22, 02:59:00,VALID,920.92,VALID,0,VALID,91.8722,VALID,0,VALID,19.0274,VALID,56,VALID,0.795703,
2002-02-22, 03:00:00,VALID,920.91,VALID,0,VALID,91.8251,VALID,-0.0169808,VALID,19.0016,VALID,65,VALID,0.918997,
2002-02-22, 03:01:00,VALID,920.905,VALID,0,VALID,91.7018,VALID,-0.0339617,VALID,19.0053,VALID,88,VALID,1.13151,
2002-02-22, 03:02:00,VALID,920.902,VALID,0,VALID,91.7285,VALID,0,VALID,19.0217,VALID,124,VALID,1.17293,
2002-02-22, 03:03:00,VALID,920.906,VALID,0,VALID,91.6369,VALID,-0.0339617,VALID,19.044,VALID,121,VALID,0.960515,
2002-02-22, 03:04:00,VALID,920.891,VALID,0,VALID,91.5339,VALID,-0.0169808,VALID,19.0726,VALID,122,VALID,1.07881,
2002-02-22, 03:05:00,VALID,920.889,VALID,0,VALID,91.1041,VALID,-0.0169808,VALID,19.0987,VALID,127,VALID,1.17637,
2002-02-22, 03:06:00,VALID,920.884,VALID,0,VALID,90.5319,VALID,-0.0169808,VALID,19.1407,VALID,125,VALID,0.999599,
2002-02-22, 03:07:00,VALID,920.879,VALID,0,VALID,90.275,VALID,-0.0509425,VALID,19.1924,VALID,126,VALID,0.671053,
2002-02-22, 03:08:00,VALID,920.87,VALID,0,VALID,89.8223,VALID,-0.0169808,VALID,19.2348,VALID,143,VALID,0.940584,
2002-02-22, 03:09:00,VALID,920.867,VALID,0,VALID,89.4052,VALID,-0.0509425,VALID,19.2736,VALID,137,VALID,0.95918,
2002-02-22, 03:10:00,VALID,920.883,VALID,0,VALID,89.0543,VALID,-0.0509425,VALID,19.3322,VALID,149,VALID,0.849559,
2002-02-22, 03:11:00,VALID,920.883,VALID,0,VALID,88.6779,VALID,-0.0339617,VALID,19.3578,VALID,151,VALID,0.929688,
2002-02-22, 03:12:00,VALID,920.882,VALID,0,VALID,88.215,VALID,-0.0339617,VALID,19.3963,VALID,145,VALID,0.786529,
2002-02-22, 03:13:00,VALID,920.887,VALID,0,VALID,88.2138,VALID,-0.0339617,VALID,19.4351,VALID,133,VALID,0.348524,
2002-02-22, 03:14:00,VALID,920.89,VALID,0,VALID,88.285,VALID,-0.0169808,VALID,19.4607,VALID,145,VALID,0.380859,
2002-02-22, 03:15:00,VALID,920.875,VALID,0,VALID,88.3371,VALID,-0.0169808,VALID,19.4833,VALID,156,VALID,0.453506,
2002-02-22, 03:16:00,VALID,920.887,VALID,0,VALID,88.2087,VALID,-0.0339617,VALID,19.4972,VALID,136,VALID,0.290752,
2002-02-22, 03:17:00,VALID,920.888,VALID,0,VALID,88.4172,VALID,-0.0509425,VALID,19.4898,VALID,129,VALID,0.139597,
2002-02-22, 03:18:00,VALID,920.881,VALID,0,VALID,88.2074,VALID,-0.0679233,VALID,19.4902,VALID,143,VALID,0.236842,
2002-02-22, 03:19:00,VALID,920.883,VALID,0,VALID,88.4579,VALID,-0.0339617,VALID,19.4932,VALID,146,VALID,0.320694,
2002-02-22, 03:20:00,VALID,920.878,VALID,0,VALID,88.2799,VALID,-0.0339617,VALID,19.4997,VALID,148,VALID,0.568873,
2002-02-22, 03:21:00,VALID,920.875,VALID,0,VALID,88.4617,VALID,-0.0849042,VALID,19.4935,VALID,152,VALID,0.228824,
2002-02-22, 03:22:00,VALID,920.874,VALID,0,VALID,88.6626,VALID,-0.0679233,VALID,19.4999,VALID,154,VALID,0.130859,
2002-02-22, 03:23:00,VALID,920.87,VALID,0,VALID,88.8559,VALID,-0.0509425,VALID,19.4932,VALID,152,VALID,0.676098,
2002-02-22, 03:24:00,VALID,920.863,VALID,0,VALID,88.805,VALID,0,VALID,19.4602,VALID,147,VALID,0.437277,
2002-02-22, 03:25:00,VALID,920.865,VALID,0,VALID,88.8674,VALID,0.0509425,VALID,19.4503,VALID,169,VALID,0.643709,
2002-02-22, 03:26:00,VALID,920.866,VALID,0,VALID,88.5952,VALID,0.0679233,VALID,19.4274,VALID,152,VALID,0.548142,
2002-02-22, 03:27:00,VALID,920.872,VALID,0,VALID,88.5189,VALID,0,VALID,19.4177,VALID,131,VALID,0.431127,
2002-02-22, 03:28:00,VALID,920.87,VALID,0,VALID,88.2773,VALID,0.0169808,VALID,19.4145,VALID,138,VALID,0.616765,
2002-02-22, 03:29:00,VALID,920.871,VALID,0,VALID,88.2608,VALID,0.0509425,VALID,19.4142,VALID,133,VALID,0.264258,
2002-02-22, 03:30:00,VALID,920.856,VALID,0,VALID,88.0726,VALID,0,VALID,19.4209,VALID,107,VALID,0.476357,
2002-02-22, 03:31:00,VALID,920.84,VALID,0,VALID,88.0713,VALID,0.0169808,VALID,19.4237,VALID,80,VALID,0.0987413,
2002-02-22, 03:32:00,VALID,920.839,VALID,0,VALID,88.3091,VALID,-0.0169808,VALID,19.4339,VALID,80,VALID,0,
2002-02-22, 03:33:00,VALID,920.833,VALID,0,VALID,88.6499,VALID,0,VALID,19.4304,VALID,80,VALID,0,
2002-02-22, 03:34:00,VALID,920.834,VALID,0,VALID,89.1102,VALID,0.0339617,VALID,19.4177,VALID,80,VALID,0.0130974,